Temperature
2 3 2 2 1 1 0 1 2 3 3 4 3 2 3 3 2 2 1 1 0 0 0 -0 -0 -0 -0 -0 -0 -0 -0 0 0 0 0 1 1 1 1 1 1 1 1 1
1 2 2 1 2 1 1 1 1 2 2 3 3 3 2 2 1 1 0 0 -0 -0 -0 -0 -1 -1 -1 -1 -1 -1 -0 -0 -0 0 0 0 0 0 0 0 0 0 0 0
2 2 2 1 1 1 1 1 1 1 2 2 2 1 1 1 1 0 -0 -1 -1 -1 -1 -1 -1 -1 -1 -1 -1 -1 -1 -1 -0 -0 -0 -0 -0 -0 -0 -0 -0 -0 -0 -0
1 1 1 3 2 2 1 1 1 1 1 1 1 1 1 1 1 -0 -1 -1 -1 -1 -1 -1 -1 -1 -1 -1 -1 -1 -1 -1 -1 -1 -1 -1 -1 -1 -0 -0 -0 -1 -1 -0
1 1 1 2 2 1 0 0 1 0 0 1 1 1 1 1 0 -0 -1 -1 -1 -1 -1 -1 -1 -1 -1 -1 -1 -1 -2 -1 -1 -1 -1 -1 -1 -1 -1 -1 -1 -1 -1 -1
0 1 1 3 1 2 1 0 1 1 0 0 -0 -1 -0 0 -0 -1 -1 -1 -1 -1 -1 -1 -1 -1 -1 -2 -2 -2 -2 -2 -2 -2 -2 -2 -1 -1 -1 -1 -1 -1 -1 -1
-1 -0 1 1 1 1 1 1 1 1 1 0 -1 -1 -0 -1 -1 -1 -1 -1 -1 -1 -1 -2 -2 -2 -2 -2 -2 -2 -2 -2 -2 -2 -2 -2 -2 -2 -2 -2 -1 -2 -2 -2
-1 -0 1 0 -0 -0 0 1 1 1 1 0 -0 -0 -1 -1 -1 -1 -2 -2 -2 -2 -2 -2 -2 -2 -2 -2 -3 -3 -2 -2 -3 -2 -2 -2 -2 -2 -2 -2 -2 -2 -2 -2
-0 0 1 1 1 1 1 1 1 0 0 -0 -1 -1 -1 -2 -2 -2 -2 -2 -2 -2 -2 -2 -2 -3 -3 -3 -3 -3 -3 -3 -3 -3 -3 -3 -2 -2 -2 -2 -2 -2 -3 -3
-1 -1 1 1 1 1 1 1 0 0 -0 -1 -1 -2 -2 -2 -2 -2 -2 -2 -2 -2 -2 -2 -3 -3 -3 -3 -3 -3 -3 -3 -3 -3 -3 -3 -3 -3 -3 -3 -3 -3 -3 -3
-2 -1 -0 1 1 1 0 0 -0 -0 -1 -1 -2 -2 -2 -2 -2 -3 -3 -3 -3 -3 -3 -3 -3 -3 -3 -3 -3 -3 -3 -4 -4 -3 -3 -3 -3 -3 -3 -4 -4 -4 -4 -4
-1 -0 -1 0 0 0 0 -0 -1 -1 -1 -2 -2 -2 -2 -2 -3 -3 -3 -3 -3 -3 -3 -3 -3 -3 -3 -3 -3 -4 -4 -4 -4 -4 -4 -4 -4 -4 -4 -4 -4 -4 -4 -4
0 0 0 -0 -0 -0 -1 -1 -1 -1 -2 -2 -2 -2 -2 -3 -3 -3 -3 -3 -3 -3 -3 -4 -3 -4 -4 -4 -4 -4 -4 -4 -4 -4 -4 -4 -4 -4 -4 -4 -4 -5 -4 -5
-0 -1 -1 -1 -1 -1 -1 -2 -2 -2 -2 -2 -2 -2 -3 -3 -3 -3 -3 -4 -4 -4 -4 -4 -4 -4 -4 -4 -4 -4 -4 -5 -5 -5 -5 -5 -5 -5 -5 -5 -5 -5 -5 -5
-1 -1 -2 -2 -2 -2 -2 -2 -2 -2 -2 -2 -3 -3 -3 -3 -3 -3 -4 -4 -4 -4 -4 -4 -4 -4 -4 -4 -4 -5 -5 -5 -5 -5 -5 -5 -5 -5 -5 -5 -5 -5 -5 -5
-2 -2 -2 -2 -2 -3 -3 -3 -3 -3 -3 -3 -3 -3 -3 -3 -3 -4 -4 -4 -4 -4 -4 -4 -4 -4 -5 -5 -5 -5 -5 -5 -5 -5 -5 -5 -5 -5 -6 -6 -6 -6 -6 -6
-2 -3 -3 -3 -3 -3 -3 -3 -3 -3 -3 -3 -3 -3 -4 -4 -4 -4 -4 -4 -4 -4 -4 -5 -5 -5 -5 -5 -5 -5 -5 -5 -5 -5 -5 -6 -6 -6 -6 -6 -6 -6 -6 -6
-2 -2 -2 -2 -3 -3 -3 -3 -3 -3 -3 -3 -3 -3 -4 -4 -4 -4 -4 -4 -4 -5 -5 -5 -5 -5 -5 -5 -5 -5 -5 -5 -5 -6 -6 -6 -6 -6 -6 -6 -6 -6 -6 -6
-2 -2 -2 -2 -3 -3 -3 -3 -3 -3 -3 -3 -3 -4 -4 -4 -4 -4 -4 -5 -5 -5 -5 -5 -5 -5 -5 -5 -5 -5 -5 -5 -6 -6 -6 -6 -6 -6 -6 -6 -6 -6 -6 -6
-2 -2 -2 -2 -3 -3 -3 -3 -3 -3 -3 -3 -4 -4 -4 -4 -4 -4 -5 -5 -5 -5 -5 -5 -5 -5 -5 -5 -5 -5 -5 -5 -6 -6 -6 -6 -6 -6 -6 -6 -6 -6 -6 -6
-2 -2 -2 -2 -3 -3 -3 -3 -3 -3 -3 -4 -4 -4 -4 -4 -4 -5 -5 -5 -5 -5 -5 -5 -5 -5 -5 -5 -5 -5 -5 -5 -6 -6 -6 -6 -6 -6 -6 -6 -6 -6 -6 -6
-2 -2 -2 -3 -3 -3 -3 -3 -3 -3 -3 -4 -4 -4 -4 -4 -5 -5 -5 -5 -5 -5 -5 -5 -5 -5 -5 -5 -5 -5 -5 -6 -6 -6 -6 -6 -6 -6 -6 -6 -6 -6 -6 -6
-2 -2 -3 -3 -3 -3 -3 -3 -3 -3 -3 -4 -4 -4 -4 -5 -5 -5 -5 -5 -5 -5 -5 -5 -5 -5 -6 -6 -6 -6 -6 -6 -6 -6 -6 -6 -6 -6 -6 -6 -6 -6 -6 -6
-2 -3 -3 -3 -3 -3 -3 -3 -3 -3 -4 -4 -4 -4 -5 -5 -5 -5 -5 -5 -5 -5 -5 -5 -5 -6 -6 -6 -6 -6 -6 -6 -6 -6 -6 -6 -6 -6 -6 -6 -6 -6 -6 -6
-3 -3 -3 -3 -3 -3 -3 -3 -3 -4 -4 -4 -4 -4 -5 -5 -5 -5 -5 -5 -5 -5 -5 -6 -6 -6 -6 -6 -6 -6 -6 -6 -6 -6 -6 -6 -6 -6 -6 -6 -6 -6 -6 -6
-3 -3 -3 -3 -3 -3 -3 -3 -4 -4 -4 -4 -4 -5 -5 -5 -5 -5 -5 -5 -5 -5 -5 -6 -6 -6 -6 -6 -6 -6 -6 -6 -6 -6 -6 -6 -6 -6 -6 -6 -6 -6 -6 -6
-3 -3 -3 -3 -3 -3 -4 -4 -4 -4 -4 -4 -5 -5 -5 -5 -5 -5 -6 -6 -6 -5 -5 -6 -6 -6 -6 -6 -6 -6 -6 -6 -6 -6 -6 -6 -6 -6 -6 -6 -6 -6 -6 -6
Wind_Speed
6 5 4 6 7 7 8 8 7 7 8 9 6 6 5 4 4 5 5 5 5 4 4 4 4 5 5 5 5 5 5 4 3 3 3 3 3 3 3 3 3 3 3 3
4 6 6 7 9 9 10 8 9 11 12 7 6 4 4 4 5 5 5 6 6 6 5 4 4 5 5 5 5 4 4 3 3 3 3 3 3 3 2 2 2 2 2 3
3 1 3 7 8 9 6 6 7 9 8 4 5 5 5 5 4 4 5 6 6 6 5 4 4 4 5 5 5 4 3 3 3 2 3 3 3 3 2 2 2 2 2 2
2 2 5 5 1 4 6 6 7 6 5 5 5 6 5 3 2 4 5 6 6 6 6 5 5 4 5 4 4 4 4 4 3 2 3 3 3 3 3 2 2 2 2 2
2 4 6 3 1 2 3 6 4 5 6 5 4 4 3 1 2 4 5 4 4 5 5 5 5 4 4 4 4 4 4 4 3 2 3 3 3 3 3 2 2 2 2 2
3 3 5 3 0 1 2 4 2 2 3 2 2 3 3 3 5 5 5 4 4 5 5 5 5 4 3 4 4 4 5 4 3 2 2 2 3 3 2 2 2 2 2 2
5 5 6 2 1 2 2 5 2 1 2 2 2 4 4 4 5 4 4 5 5 5 4 4 4 4 3 3 4 5 5 4 4 3 2 2 2 2 2 2 1 2 2 2
4 5 7 2 3 3 4 2 2 2 2 2 3 4 4 4 5 5 5 5 5 4 4 4 4 3 4 4 5 5 4 4 4 3 3 3 2 2 2 1 1 1 1 1
6 7 2 4 4 3 2 3 3 2 2 2 3 4 4 4 4 4 4 4 4 4 4 4 4 3 4 4 5 4 4 4 3 3 3 3 2 2 2 2 1 1 1 1
5 6 4 4 4 3 3 3 3 2 2 2 3 4 5 4 4 4 5 4 4 4 4 4 4 4 4 4 4 4 4 4 3 3 3 3 2 2 2 2 2 2 2 2
6 6 6 5 4 4 4 3 3 3 3 3 3 4 4 4 4 4 4 4 3 3 4 4 5 4 4 4 4 4 4 3 3 3 3 3 3 2 2 2 1 1 1 1
6 4 3 4 2 2 2 3 3 3 3 3 3 4 4 4 4 4 3 3 3 3 3 4 4 4 4 4 3 3 3 3 3 2 2 2 2 3 4 3 4 4 4 3
4 2 3 4 2 2 2 3 3 2 2 3 3 3 3 3 3 3 2 2 2 3 3 3 4 4 5 4 3 3 3 3 3 2 2 2 2 2 3 4 5 5 5 5
2 1 3 3 3 2 2 2 2 2 2 2 2 3 2 3 3 3 2 3 2 3 3 3 3 4 4 4 3 3 3 3 3 2 2 2 2 2 2 2 3 3 4 5
3 3 4 2 1 1 1 1 2 2 3 3 2 2 2 2 3 3 3 2 2 3 3 3 3 4 4 3 3 3 3 2 2 2 2 2 2 2 1 2 2 2 3 4
3 3 2 2 2 2 1 2 2 3 3 3 3 3 2 2 2 3 2 2 2 3 3 3 3 4 3 3 3 3 2 3 3 2 2 2 2 2 2 2 2 2 2 3
2 3 3 3 3 3 3 3 3 3 2 3 3 2 2 2 2 3 3 3 2 2 3 3 3 4 3 3 3 2 2 3 3 2 2 2 2 2 2 2 2 2 2 3
4 4 4 4 3 3 3 2 2 2 2 2 2 1 1 1 2 3 3 3 3 3 3 2 3 3 3 3 3 2 2 2 2 2 2 2 2 2 2 2 2 2 2 3
3 3 3 3 2 2 2 2 2 2 2 1 1 1 1 2 2 2 2 3 3 3 3 3 4 3 3 3 4 2 2 2 2 2 2 2 2 2 2 2 2 2 2 3
2 2 2 1 1 1 2 2 1 1 1 0 0 1 2 2 2 2 2 2 2 2 2 3 3 2 2 3 4 2 2 2 2 2 2 2 2 2 2 2 2 2 2 2
2 1 1 1 1 1 1 1 1 1 1 0 1 1 2 2 2 1 2 3 3 2 2 3 2 2 2 3 3 2 2 2 2 2 2 2 2 2 2 2 2 2 2 2
2 2 1 1 1 0 1 0 1 1 0 1 1 1 1 2 2 2 2 2 2 4 3 2 2 3 3 3 2 2 2 2 2 2 2 2 2 2 2 2 2 2 2 2
2 2 2 1 1 1 1 0 1 1 1 1 1 1 2 2 1 1 3 2 2 3 3 2 3 4 4 3 2 2 2 2 2 2 2 2 2 2 2 2 2 2 2 2
2 2 1 1 1 1 0 1 1 1 1 1 1 1 1 1 2 1 1 3 4 3 2 3 4 4 3 2 2 2 2 2 2 2 2 2 2 2 2 2 2 2 2 2
2 2 2 2 2 1 1 1 0 0 0 1 1 1 1 1 1 2 2 2 3 3 2 3 4 3 2 1 1 2 2 2 2 2 2 2 2 2 2 2 2 2 2 2
2 2 2 2 2 2 1 1 1 1 1 1 2 1 1 1 1 1 1 2 2 3 2 2 2 2 2 2 2 2 2 3 3 2 2 2 2 2 2 2 3 2 2 2
2 1 1 1 1 1 2 2 2 2 1 1 2 1 1 1 1 1 1 1 2 2 2 2 2 2 2 2 2 2 2 2 2 2 2 2 2 2 2 3 2 2 2 2
Wind_Direction
267 273 255 247 235 215 217 229 241 264 275 278 297 309 310 317 327 327 331 338 336 336 332 336 335 334 329 320 317 313 306 295 288 294 300 303 296 279 274 278 283 289 285 282
269 250 248 259 247 229 230 240 250 269 277 284 306 316 322 324 322 321 330 335 337 333 326 326 327 325 324 319 316 317 317 300 297 301 303 302 299 291 278 279 281 283 284 277
261 281 310 267 233 209 211 217 216 243 258 305 315 313 310 309 311 322 327 326 328 327 322 318 317 316 313 310 315 318 314 311 315 311 298 295 295 294 279 267 269 270 276 282
275 320 255 241 177 184 213 245 231 248 274 294 295 304 301 297 316 318 316 316 321 327 331 325 317 313 307 309 319 318 313 315 323 320 313 303 293 284 278 274 270 277 283 287
251 262 270 259 232 171 204 270 224 237 273 298 328 326 302 339 338 315 314 315 319 326 323 320 316 314 322 324 325 324 319 319 319 317 309 306 288 282 280 282 285 280 286 289
237 254 255 258 146 119 128 275 257 226 262 291 350 313 287 343 344 332 331 332 333 333 329 324 322 327 332 324 330 325 322 319 317 306 294 297 295 287 292 289 286 285 296 287
230 244 262 260 157 120 181 267 299 236 245 247 252 255 282 317 324 328 329 329 332 329 329 330 333 338 331 330 330 322 320 321 322 323 321 316 310 302 296 296 301 306 306 306
199 225 254 166 135 190 240 301 292 273 257 265 280 295 311 317 318 324 327 328 330 329 330 333 339 343 337 331 325 327 326 325 328 334 332 333 339 337 326 308 300 308 323 332
204 220 245 173 203 229 269 284 284 274 283 276 283 292 304 308 311 314 318 320 323 325 328 333 338 340 327 321 325 329 327 325 332 339 337 341 351 349 350 348 323 312 321 325
261 263 270 246 239 259 272 270 285 289 292 279 276 286 297 302 308 314 316 317 322 329 330 331 337 338 321 319 330 333 328 330 336 342 344 348 349 349 352 348 344 344 339 332
254 274 293 269 253 272 284 286 292 302 291 277 273 284 287 292 298 304 307 314 323 325 322 324 330 334 335 334 341 337 330 334 341 349 348 350 351 347 340 336 342 348 338 339
236 242 233 266 287 317 295 290 288 295 303 302 282 285 291 292 294 298 302 314 322 323 322 322 328 330 334 335 342 341 334 334 336 340 341 343 346 351 359 0 4 3 359 1
238 284 276 278 293 320 288 286 289 284 287 304 308 300 299 299 304 311 315 318 315 315 317 321 328 331 332 335 342 345 336 335 338 341 343 351 355 357 354 1 7 7 5 4
238 278 280 278 282 295 296 306 317 318 313 305 306 315 318 317 319 325 317 314 319 320 318 322 330 332 336 345 350 348 343 342 343 342 340 345 347 346 353 359 359 4 3 4
250 250 249 272 305 322 324 323 321 314 320 321 321 317 318 313 310 314 319 328 333 333 330 338 339 335 345 353 355 351 345 344 348 346 344 345 347 352 355 360 5 3 8 4
259 256 246 254 260 278 297 292 285 292 299 302 310 310 307 307 310 318 328 336 341 332 332 337 332 335 352 355 354 352 352 352 353 351 350 352 357 356 360 1 359 359 353 347
206 235 242 259 261 265 264 265 263 271 286 293 293 304 324 337 339 337 335 339 341 329 326 326 328 343 355 351 348 346 346 349 353 352 351 350 354 349 347 350 344 340 333 339
213 225 223 228 235 250 266 272 274 275 277 281 296 309 312 312 309 313 324 340 350 347 343 349 351 355 355 350 350 348 348 350 350 342 341 350 353 346 341 336 329 329 334 343
209 216 224 233 233 230 246 263 270 275 281 277 269 276 288 297 308 317 332 347 345 335 335 352 351 359 350 346 349 351 350 349 347 340 338 346 347 337 336 334 331 331 337 341
207 200 203 228 234 221 239 259 274 297 304 301 296 317 318 315 326 334 339 328 309 305 322 339 341 341 339 341 344 346 348 347 342 338 341 345 341 337 338 336 334 336 338 339
191 180 181 197 240 249 236 224 206 257 298 293 231 259 282 303 320 326 328 320 324 346 347 341 345 334 334 341 345 349 349 345 342 338 338 338 336 335 335 335 334 333 334 334
185 176 189 189 174 279 298 250 191 208 276 313 312 300 304 309 317 321 302 285 308 336 349 342 335 337 345 349 348 346 345 340 334 333 332 330 331 332 329 327 325 326 328 325
177 179 183 188 187 207 313 315 218 200 215 241 258 271 273 281 297 304 311 322 338 336 341 331 331 339 349 357 349 344 340 336 332 329 323 322 318 313 309 311 311 314 315 316
165 166 177 172 142 133 271 293 291 266 242 258 262 263 261 292 308 293 294 319 332 331 330 326 338 342 352 354 339 335 331 326 321 319 317 314 310 306 304 304 304 307 307 305
165 165 166 165 171 195 214 232 9 337 334 318 301 289 275 254 263 296 320 318 319 328 327 326 334 340 347 334 329 326 322 315 314 316 315 310 305 302 303 305 305 304 301 302
179 185 194 202 200 196 191 188 217 241 256 296 308 299 305 321 307 302 308 308 308 316 321 317 317 326 325 317 312 309 311 315 317 317 311 307 304 303 303 305 306 304 306 310
167 176 177 187 201 192 193 198 209 231 235 244 283 289 298 308 309 307 307 309 310 312 312 312 312 310 306 305 306 308 308 308 310 310 308 306 305 299 297 302 306 313 315 311
Height
1482 1480 1481 1481 1482 1484 1487 1483 1481 1471 1467 1461 1461 1461 1460 1459 1458 1456 1454 1452 1450 1447 1445 1443 1441 1440 1438 1436 1435 1433 1431 1429 1428 1427 1427 1427 1427 1427 1427 1427 1426 1426 1426 1426
1483 1478 1478 1479 1476 1477 1479 1478 1475 1471 1467 1460 1460 1459 1458 1457 1456 1454 1452 1450 1448 1445 1443 1441 1439 1437 1435 1433 1432 1430 1428 1426 1424 1424 1424 1423 1423 1423 1423 1423 1423 1423 1423 1422
1482 1477 1478 1477 1470 1470 1472 1469 1470 1469 1464 1460 1459 1458 1457 1455 1454 1452 1450 1448 1446 1443 1440 1438 1436 1435 1432 1431 1429 1427 1425 1423 1421 1421 1420 1420 1420 1420 1420 1420 1420 1420 1420 1420
1483 1482 1483 1467 1462 1462 1465 1464 1463 1461 1460 1458 1458 1456 1454 1453 1452 1450 1449 1446 1443 1441 1438 1436 1434 1432 1430 1428 1426 1424 1422 1420 1418 1418 1418 1418 1418 1418 1418 1418 1417 1417 1417 1417
1484 1481 1472 1463 1461 1461 1464 1463 1458 1458 1457 1456 1456 1454 1452 1451 1450 1449 1447 1444 1442 1439 1436 1434 1432 1430 1428 1426 1424 1422 1419 1417 1417 1416 1416 1415 1415 1415 1415 1415 1415 1415 1414 1414
1483 1482 1475 1462 1460 1458 1462 1462 1454 1454 1455 1455 1454 1455 1451 1449 1448 1446 1444 1442 1439 1436 1434 1432 1430 1428 1426 1424 1422 1420 1418 1417 1416 1415 1414 1413 1413 1413 1413 1413 1412 1412 1411 1411
1484 1481 1469 1460 1459 1459 1465 1460 1453 1453 1453 1453 1453 1453 1450 1448 1446 1444 1442 1439 1437 1434 1432 1430 1428 1426 1424 1423 1420 1419 1418 1416 1415 1414 1412 1412 1411 1411 1411 1411 1410 1410 1409 1409
1480 1478 1469 1459 1459 1461 1458 1453 1452 1451 1451 1451 1450 1449 1447 1445 1443 1441 1439 1437 1434 1432 1430 1428 1426 1425 1422 1421 1419 1418 1416 1415 1413 1412 1411 1410 1409 1409 1409 1408 1408 1407 1407 1406
1468 1465 1457 1455 1454 1454 1453 1452 1451 1450 1449 1449 1447 1446 1444 1442 1441 1439 1437 1434 1432 1430 1428 1427 1425 1423 1421 1419 1418 1416 1415 1413 1412 1411 1410 1409 1408 1407 1406 1406 1406 1405 1405 1404
1462 1456 1453 1452 1452 1451 1451 1450 1449 1448 1447 1446 1444 1443 1441 1440 1438 1436 1434 1432 1430 1429 1427 1425 1423 1422 1420 1418 1416 1415 1413 1412 1411 1409 1408 1407 1406 1406 1405 1404 1404 1404 1403 1403
1460 1454 1451 1448 1449 1448 1447 1447 1446 1445 1444 1443 1441 1440 1438 1436 1435 1434 1432 1430 1429 1427 1425 1423 1422 1420 1419 1417 1415 1413 1412 1410 1409 1408 1407 1406 1405 1404 1404 1404 1404 1403 1402 1402
1454 1449 1449 1447 1445 1445 1444 1444 1443 1442 1441 1440 1439 1437 1436 1434 1432 1431 1429 1428 1427 1425 1424 1422 1420 1419 1417 1416 1414 1412 1410 1409 1408 1407 1406 1405 1404 1403 1403 1403 1403 1403 1402 1401
1447 1446 1445 1444 1443 1443 1442 1441 1440 1440 1439 1437 1436 1435 1433 1431 1430 1428 1427 1426 1425 1423 1422 1421 1419 1417 1416 1415 1413 1411 1410 1408 1407 1406 1405 1404 1403 1402 1402 1402 1402 1402 1401 1400
1444 1443 1442 1441 1440 1440 1439 1439 1438 1437 1436 1435 1434 1432 1431 1429 1427 1426 1425 1424 1423 1422 1421 1419 1418 1416 1415 1413 1412 1410 1409 1408 1407 1405 1405 1404 1403 1402 1402 1401 1400 1400 1400 1399
1440 1440 1439 1438 1438 1437 1437 1436 1435 1434 1433 1432 1431 1430 1429 1427 1426 1425 1424 1423 1422 1420 1419 1418 1416 1415 1414 1412 1411 1410 1408 1407 1406 1405 1404 1403 1403 1402 1401 1400 1400 1399 1399 1398
1436 1436 1436 1435 1434 1434 1434 1433 1432 1432 1431 1430 1429 1428 1428 1426 1425 1424 1423 1422 1420 1419 1417 1416 1415 1414 1413 1412 1410 1409 1408 1407 1406 1405 1404 1403 1402 1401 1401 1400 1399 1399 1398 1397
1433 1432 1432 1432 1431 1431 1431 1431 1430 1430 1429 1428 1428 1427 1426 1425 1424 1423 1422 1421 1419 1418 1417 1416 1415 1413 1412 1411 1410 1408 1407 1406 1405 1404 1404 1403 1402 1401 1400 1400 1399 1398 1398 1398
1429 1430 1430 1429 1429 1429 1429 1429 1429 1428 1428 1427 1426 1426 1425 1424 1423 1422 1421 1419 1418 1417 1416 1415 1414 1413 1411 1410 1409 1408 1407 1406 1405 1404 1403 1402 1402 1401 1400 1400 1399 1398 1397 1397
1426 1427 1427 1428 1428 1428 1427 1427 1427 1426 1426 1426 1425 1424 1424 1423 1422 1421 1420 1418 1417 1416 1415 1415 1414 1412 1411 1410 1409 1408 1407 1406 1405 1404 1403 1402 1401 1401 1400 1399 1398 1397 1396 1396
1424 1425 1425 1425 1426 1426 1426 1426 1425 1425 1425 1425 1424 1423 1422 1422 1421 1420 1419 1418 1417 1416 1415 1414 1413 1412 1411 1410 1409 1407 1406 1405 1404 1403 1402 1401 1401 1400 1399 1398 1397 1396 1395 1395
1422 1423 1423 1424 1424 1424 1424 1424 1424 1424 1424 1423 1423 1422 1422 1421 1420 1419 1418 1417 1416 1415 1414 1413 1412 1411 1410 1409 1408 1407 1406 1405 1404 1403 1402 1401 1400 1399 1398 1397 1396 1396 1395 1394
1420 1421 1422 1422 1422 1423 1423 1423 1423 1423 1423 1422 1422 1421 1421 1420 1419 1418 1417 1417 1416 1415 1413 1412 1411 1410 1409 1409 1407 1406 1405 1404 1403 1402 1401 1400 1399 1398 1397 1397 1396 1395 1395 1394
1419 1420 1421 1421 1421 1421 1422 1422 1422 1422 1422 1421 1421 1420 1420 1419 1418 1417 1416 1416 1415 1414 1413 1412 1411 1410 1409 1408 1407 1405 1404 1403 1402 1401 1400 1399 1399 1398 1397 1396 1395 1394 1394 1393
1418 1419 1420 1420 1421 1421 1421 1421 1421 1421 1421 1421 1420 1420 1419 1418 1417 1417 1416 1415 1414 1413 1412 1411 1410 1409 1408 1407 1406 1405 1404 1403 1402 1401 1400 1399 1398 1397 1396 1395 1394 1393 1393 1392
1418 1418 1419 1419 1419 1420 1420 1420 1420 1420 1420 1419 1419 1418 1418 1417 1416 1415 1414 1413 1413 1412 1411 1410 1409 1408 1407 1406 1405 1404 1403 1402 1401 1400 1399 1398 1397 1396 1395 1394 1393 1392 1392 1391
1416 1417 1418 1418 1419 1419 1419 1419 1419 1419 1418 1418 1417 1417 1416 1416 1415 1414 1413 1412 1411 1410 1410 1409 1408 1407 1406 1405 1404 1403 1402 1401 1400 1400 1399 1397 1396 1395 1394 1393 1393 1392 1391 1391
1415 1416 1416 1417 1417 1418 1418 1418 1418 1417 1417 1417 1416 1415 1415 1414 1413 1412 1412 1411 1410 1409 1408 1408 1407 1406 1405 1404 1403 1402 1401 1400 1399 1399 1398 1397 1396 1395 1394 1393 1392 1391 1391 1390